Simultaneous Nadir Overpasses (SNOs) Predictions

Prediction of SNOs between AURA and NPP Satellite Orbit:

Table of predicted SNOs for the next 14.0 days since TLE Epoch: 1/8/2022
Index Date (AURA) Time (AURA) Lat,Lon (AURA) SZA (AURA ) Date (NPP) Time (NPP) Lat,Lon (NPP) SZA (NPP ) Distance(km) Time Diff (sec)
1 01/09/2022 10:35:31 -79.42, 97.45 65.49 01/09/2022 10:34:39 -79.41, 97.38 65.44 1.61 52
2 01/09/2022 11:24:49 79.71, -92.79 114.08 01/09/2022 11:25:14 79.71, -92.74 114.06 1.02 25
3 01/12/2022 02:51:58 -79.55,-145.75 66.03 01/12/2022 02:51:25 -79.56,-145.63 66.03 2.48 33
4 01/12/2022 03:41:19 79.73, 23.22 113.70 01/12/2022 03:42:04 79.73, 23.15 113.68 1.34 45
5 01/14/2022 19:08:28 -79.60, -29.52 66.51 01/14/2022 19:08:15 -79.60, -29.46 66.52 1.13 13
6 01/14/2022 19:57:49 79.78, 139.45 113.22 01/14/2022 19:58:54 79.77, 139.32 113.20 2.77 65
7 01/17/2022 10:35:38 79.37, -82.89 113.37 01/17/2022 10:34:28 79.36, -82.96 113.44 1.50 70
8 01/17/2022 11:24:58 -79.64, 86.67 67.04 01/17/2022 11:25:05 -79.65, 86.70 67.05 0.71 7
9 01/20/2022 02:52:07 79.44, 33.48 112.76 01/20/2022 02:51:17 79.44, 33.42 112.81 1.18 50



Historial Predications of SNOs between AURA and NPP
